Time,TemperatureF,DewpointF,PressureIn,WindDirection,WindDirectionDegrees,WindSpeedMPH,WindSpeedGustMPH,Humidity,HourlyPrecipIn,Conditions,Clouds,dailyrainin,SoftwareType,DateUTC
2013-06-24 00:00:00,73.1,71.0,29.77,South,189,0.0,1.0,93,0.00,,,0.00,Wunderground v.1.15,2013-06-24 04:00:00,
2013-06-24 00:05:00,73.0,70.9,29.77,South,189,0.0,1.0,93,0.00,,,0.00,Wunderground v.1.15,2013-06-24 04:05:00,
2013-06-24 00:10:00,73.0,70.9,29.77,South,189,0.0,1.0,93,0.00,,,0.00,Wunderground v.1.15,2013-06-24 04:10:00,
2013-06-24 00:15:00,72.9,70.8,29.77,South,189,0.0,1.0,93,0.00,,,0.00,Wunderground v.1.15,2013-06-24 04:15:00,
2013-06-24 00:20:00,72.8,71.0,29.77,South,189,0.0,1.0,94,0.00,,,0.00,Wunderground v.1.15,2013-06-24 04:20:00,
2013-06-24 00:25:00,72.7,70.9,29.77,South,189,0.0,1.0,94,0.00,,,0.00,Wunderground v.1.15,2013-06-24 04:25:00,
2013-06-24 00:35:00,72.5,70.7,29.77,South,189,0.0,1.0,94,0.00,,,0.00,Wunderground v.1.15,2013-06-24 04:35:00,
2013-06-24 00:40:00,72.4,70.6,29.76,South,189,0.0,1.0,94,0.00,,,0.00,Wunderground v.1.15,2013-06-24 04:40:00,
2013-06-24 00:50:00,72.3,70.8,29.76,South,189,0.0,1.0,95,0.00,,,0.00,Wunderground v.1.15,2013-06-24 04:50:00,
2013-06-24 00:55:00,72.2,70.7,29.76,South,189,0.0,1.0,95,0.00,,,0.00,Wunderground v.1.15,2013-06-24 04:55:00,
2013-06-24 01:10:00,72.2,70.7,29.77,South,189,0.0,1.0,95,0.00,,,0.00,Wunderground v.1.15,2013-06-24 05:10:00,
2013-06-24 01:15:00,72.2,70.7,29.77,South,189,0.0,1.0,95,0.00,,,0.00,Wunderground v.1.15,2013-06-24 05:15:00,
2013-06-24 01:20:00,72.2,70.7,29.77,South,189,0.0,1.0,95,0.00,,,0.00,Wunderground v.1.15,2013-06-24 05:20:00,
2013-06-24 01:30:00,72.1,70.6,29.77,South,189,0.0,1.0,95,0.00,,,0.00,Wunderground v.1.15,2013-06-24 05:30:00,
2013-06-24 01:35:00,72.1,70.6,29.77,South,189,0.0,1.0,95,0.00,,,0.00,Wunderground v.1.15,2013-06-24 05:35:00,
2013-06-24 01:45:00,72.0,70.5,29.77,South,189,0.0,1.0,95,0.00,,,0.00,Wunderground v.1.15,2013-06-24 05:45:00,
2013-06-24 01:55:00,71.8,70.6,29.76,South,189,0.0,1.0,96,0.00,,,0.00,Wunderground v.1.15,2013-06-24 05:55:00,
2013-06-24 02:00:00,71.8,70.6,29.76,South,189,0.0,1.0,96,0.00,,,0.00,Wunderground v.1.15,2013-06-24 06:00:00,
2013-06-24 02:25:00,71.6,70.4,29.76,South,189,0.0,1.0,96,0.00,,,0.00,Wunderground v.1.15,2013-06-24 06:25:00,
2013-06-24 02:40:00,71.5,70.3,29.76,South,189,0.0,1.0,96,0.00,,,0.00,Wunderground v.1.15,2013-06-24 06:40:00,
2013-06-24 02:45:00,71.5,70.3,29.76,South,189,0.0,1.0,96,0.00,,,0.00,Wunderground v.1.15,2013-06-24 06:45:00,
2013-06-24 02:55:00,71.5,70.3,29.76,South,189,0.0,1.0,96,0.00,,,0.00,Wunderground v.1.15,2013-06-24 06:55:00,
2013-06-24 03:00:00,71.5,70.3,29.76,South,189,0.0,1.0,96,0.00,,,0.00,Wunderground v.1.15,2013-06-24 07:00:00,
2013-06-24 03:15:00,71.3,70.1,29.75,South,189,0.0,1.0,96,0.00,,,0.00,Wunderground v.1.15,2013-06-24 07:15:00,
2013-06-24 03:20:00,71.2,70.0,29.75,South,189,0.0,1.0,96,0.00,,,0.00,Wunderground v.1.15,2013-06-24 07:20:00,
2013-06-24 03:25:00,71.2,70.0,29.75,South,189,0.0,1.0,96,0.00,,,0.00,Wunderground v.1.15,2013-06-24 07:25:00,
2013-06-24 03:35:00,71.1,69.9,29.75,South,189,0.0,1.0,96,0.00,,,0.00,Wunderground v.1.15,2013-06-24 07:35:00,
2013-06-24 03:40:00,71.1,69.9,29.75,South,189,0.0,1.0,96,0.00,,,0.00,Wunderground v.1.15,2013-06-24 07:40:00,
2013-06-24 03:45:00,71.0,69.8,29.75,South,189,0.0,1.0,96,0.00,,,0.00,Wunderground v.1.15,2013-06-24 07:45:00,
2013-06-24 03:55:00,70.9,70.0,29.75,South,189,0.0,1.0,97,0.00,,,0.00,Wunderground v.1.15,2013-06-24 07:55:00,
2013-06-24 04:05:00,70.9,69.7,29.75,South,189,0.0,1.0,96,0.00,,,0.00,Wunderground v.1.15,2013-06-24 08:05:00,
2013-06-24 04:15:00,70.8,69.6,29.75,South,189,0.0,1.0,96,0.00,,,0.00,Wunderground v.1.15,2013-06-24 08:15:00,
2013-06-24 04:25:00,70.7,69.8,29.75,South,189,0.0,1.0,97,0.00,,,0.00,Wunderground v.1.15,2013-06-24 08:25:00,
2013-06-24 04:30:00,70.7,69.8,29.75,South,189,0.0,1.0,97,0.00,,,0.00,Wunderground v.1.15,2013-06-24 08:30:00,
2013-06-24 04:35:00,70.6,69.7,29.75,South,189,0.0,1.0,97,0.00,,,0.00,Wunderground v.1.15,2013-06-24 08:35:00,
2013-06-24 04:45:00,70.6,69.7,29.75,South,189,0.0,1.0,97,0.00,,,0.00,Wunderground v.1.15,2013-06-24 08:45:00,
2013-06-24 04:50:00,70.5,69.6,29.75,South,189,0.0,1.0,97,0.00,,,0.00,Wunderground v.1.15,2013-06-24 08:50:00,
2013-06-24 05:00:00,70.4,69.5,29.75,South,189,0.0,1.0,97,0.00,,,0.00,Wunderground v.1.15,2013-06-24 09:00:00,
2013-06-24 05:05:00,70.3,69.4,29.75,South,189,0.0,1.0,97,0.00,,,0.00,Wunderground v.1.15,2013-06-24 09:05:00,
2013-06-24 05:10:00,70.3,69.4,29.75,South,189,0.0,1.0,97,0.00,,,0.00,Wunderground v.1.15,2013-06-24 09:10:00,
2013-06-24 05:15:00,70.3,69.4,29.75,South,189,0.0,1.0,97,0.00,,,0.00,Wunderground v.1.15,2013-06-24 09:15:00,
2013-06-24 05:25:00,70.3,69.4,29.75,South,189,0.0,1.0,97,0.00,,,0.00,Wunderground v.1.15,2013-06-24 09:25:00,
2013-06-24 05:30:00,70.3,69.4,29.75,South,189,0.0,1.0,97,0.00,,,0.00,Wunderground v.1.15,2013-06-24 09:30:00,
2013-06-24 05:40:00,70.2,69.3,29.75,South,189,0.0,1.0,97,0.00,,,0.00,Wunderground v.1.15,2013-06-24 09:40:00,
2013-06-24 05:45:00,70.2,69.3,29.75,South,189,0.0,1.0,97,0.00,,,0.00,Wunderground v.1.15,2013-06-24 09:45:00,
2013-06-24 05:50:00,70.2,69.3,29.75,South,189,0.0,1.0,97,0.00,,,0.00,Wunderground v.1.15,2013-06-24 09:50:00,
2013-06-24 05:55:00,70.2,69.3,29.75,South,189,0.0,1.0,97,0.00,,,0.00,Wunderground v.1.15,2013-06-24 09:55:00,
2013-06-24 06:00:00,70.2,69.3,29.75,South,189,0.0,1.0,97,0.00,,,0.00,Wunderground v.1.15,2013-06-24 10:00:00,
2013-06-24 06:10:00,70.1,69.2,29.75,South,189,0.0,1.0,97,0.00,,,0.00,Wunderground v.1.15,2013-06-24 10:10:00,
2013-06-24 06:20:00,70.1,69.2,29.76,South,189,0.0,1.0,97,0.00,,,0.00,Wunderground v.1.15,2013-06-24 10:20:00,
2013-06-24 06:25:00,70.2,69.3,29.76,South,189,0.0,1.0,97,0.00,,,0.00,Wunderground v.1.15,2013-06-24 10:25:00,
2013-06-24 06:35:00,70.4,69.5,29.76,South,189,0.0,1.0,97,0.00,,,0.00,Wunderground v.1.15,2013-06-24 10:35:00,
2013-06-24 06:40:00,70.5,69.9,29.76,South,189,0.0,1.0,98,0.00,,,0.00,Wunderground v.1.15,2013-06-24 10:40:00,
2013-06-24 06:45:00,70.6,70.0,29.76,South,189,0.0,1.0,98,0.00,,,0.00,Wunderground v.1.15,2013-06-24 10:45:00,
2013-06-24 06:50:00,70.8,70.2,29.76,South,189,0.0,1.0,98,0.00,,,0.00,Wunderground v.1.15,2013-06-24 10:50:00,
2013-06-24 06:55:00,70.9,70.3,29.76,South,189,0.0,1.0,98,0.00,,,0.00,Wunderground v.1.15,2013-06-24 10:55:00,
2013-06-24 07:05:00,71.2,70.6,29.76,South,189,0.0,1.0,98,0.00,,,0.00,Wunderground v.1.15,2013-06-24 11:05:00,
2013-06-24 07:10:00,71.3,70.7,29.76,South,189,0.0,1.0,98,0.00,,,0.00,Wunderground v.1.15,2013-06-24 11:10:00,
2013-06-24 07:15:00,71.4,70.5,29.76,South,189,0.0,1.0,97,0.00,,,0.00,Wunderground v.1.15,2013-06-24 11:15:00,
2013-06-24 07:20:00,71.5,70.6,29.76,South,189,0.0,1.0,97,0.00,,,0.00,Wunderground v.1.15,2013-06-24 11:20:00,
2013-06-24 07:30:00,71.9,71.3,29.76,South,189,0.0,1.0,98,0.00,,,0.00,Wunderground v.1.15,2013-06-24 11:30:00,
2013-06-24 07:35:00,72.2,71.3,29.76,South,189,0.0,1.0,97,0.00,,,0.00,Wunderground v.1.15,2013-06-24 11:35:00,
2013-06-24 07:40:00,72.4,71.5,29.76,South,189,0.0,1.0,97,0.00,,,0.00,Wunderground v.1.15,2013-06-24 11:40:00,
2013-06-24 07:45:00,72.6,71.7,29.76,South,189,0.0,1.0,97,0.00,,,0.00,Wunderground v.1.15,2013-06-24 11:45:00,
2013-06-24 07:55:00,73.2,72.3,29.76,South,189,0.0,1.0,97,0.00,,,0.00,Wunderground v.1.15,2013-06-24 11:55:00,
2013-06-24 08:00:00,73.5,72.3,29.76,South,189,0.0,1.0,96,0.00,,,0.00,Wunderground v.1.15,2013-06-24 12:00:00,
2013-06-24 08:05:00,73.9,72.4,29.76,South,189,0.0,1.0,95,0.00,,,0.00,Wunderground v.1.15,2013-06-24 12:05:00,
2013-06-24 08:10:00,74.2,72.7,29.76,South,189,0.0,1.0,95,0.00,,,0.00,Wunderground v.1.15,2013-06-24 12:10:00,
2013-06-24 08:20:00,75.0,73.2,29.76,South,189,0.0,1.0,94,0.00,,,0.00,Wunderground v.1.15,2013-06-24 12:20:00,
2013-06-24 08:25:00,75.3,73.1,29.76,SSW,201,0.0,1.0,93,0.00,,,0.00,Wunderground v.1.15,2013-06-24 12:25:00,
2013-06-24 08:35:00,76.1,73.3,29.76,SSW,201,0.0,1.0,91,0.00,,,0.00,Wunderground v.1.15,2013-06-24 12:35:00,
2013-06-24 08:40:00,76.8,74.0,29.76,SSW,201,0.0,1.0,91,0.00,,,0.00,Wunderground v.1.15,2013-06-24 12:40:00,
2013-06-24 08:45:00,77.3,73.8,29.76,SSW,201,0.0,1.0,89,0.00,,,0.00,Wunderground v.1.15,2013-06-24 12:45:00,
2013-06-24 08:50:00,77.7,73.9,29.76,SSW,201,0.0,1.0,88,0.00,,,0.00,Wunderground v.1.15,2013-06-24 12:50:00,
2013-06-24 08:55:00,78.3,74.5,29.77,SSW,201,0.0,1.0,88,0.00,,,0.00,Wunderground v.1.15,2013-06-24 12:55:00,
2013-06-24 09:00:00,78.7,74.5,29.77,SSW,201,0.0,1.0,87,0.00,,,0.00,Wunderground v.1.15,2013-06-24 13:00:00,
2013-06-24 09:05:00,79.2,74.3,29.77,SSE,155,0.0,1.0,85,0.00,,,0.00,Wunderground v.1.15,2013-06-24 13:05:00,
2013-06-24 09:15:00,80.3,74.3,29.76,South,191,0.0,1.0,82,0.00,,,0.00,Wunderground v.1.15,2013-06-24 13:15:00,
2013-06-24 09:25:00,81.1,74.7,29.77,SSW,194,0.0,1.0,81,0.00,,,0.00,Wunderground v.1.15,2013-06-24 13:25:00,
2013-06-24 09:35:00,82.0,76.0,29.76,SSW,194,0.0,1.0,82,0.00,,,0.00,Wunderground v.1.15,2013-06-24 13:35:00,
2013-06-24 09:40:00,82.5,74.9,29.76,SSW,194,0.0,1.0,78,0.00,,,0.00,Wunderground v.1.15,2013-06-24 13:40:00,
2013-06-24 09:45:00,82.7,75.5,29.76,SSW,194,0.0,1.0,79,0.00,,,0.00,Wunderground v.1.15,2013-06-24 13:45:00,
2013-06-24 09:50:00,83.1,74.7,29.76,SSW,194,0.0,1.0,76,0.00,,,0.00,Wunderground v.1.15,2013-06-24 13:50:00,
2013-06-24 09:55:00,83.6,75.2,29.76,SSW,197,0.0,1.0,76,0.00,,,0.00,Wunderground v.1.15,2013-06-24 13:55:00,
2013-06-24 10:05:00,84.2,75.4,29.76,SSE,161,0.0,1.0,75,0.00,,,0.00,Wunderground v.1.15,2013-06-24 14:05:00,
2013-06-24 10:10:00,84.5,75.7,29.76,SSE,161,0.0,1.0,75,0.00,,,0.00,Wunderground v.1.15,2013-06-24 14:10:00,
2013-06-24 10:15:00,84.9,76.1,29.75,SSE,161,0.0,1.0,75,0.00,,,0.00,Wunderground v.1.15,2013-06-24 14:15:00,
2013-06-24 10:20:00,85.3,74.8,29.76,SE,132,0.0,1.0,71,0.00,,,0.00,Wunderground v.1.15,2013-06-24 14:20:00,
2013-06-24 10:25:00,85.5,75.4,29.76,SE,132,0.0,1.0,72,0.00,,,0.00,Wunderground v.1.15,2013-06-24 14:25:00,
2013-06-24 10:30:00,85.7,76.0,29.76,SE,132,0.0,1.0,73,0.00,,,0.00,Wunderground v.1.15,2013-06-24 14:30:00,
2013-06-24 10:40:00,86.3,74.9,29.76,SE,128,0.0,1.0,69,0.00,,,0.00,Wunderground v.1.15,2013-06-24 14:40:00,
2013-06-24 10:45:00,86.4,74.6,29.76,SE,128,0.0,1.0,68,0.00,,,0.00,Wunderground v.1.15,2013-06-24 14:45:00,
2013-06-24 10:50:00,86.7,76.2,29.76,SE,127,0.0,1.0,71,0.00,,,0.00,Wunderground v.1.15,2013-06-24 14:50:00,
2013-06-24 10:55:00,87.1,74.8,29.76,East,88,0.0,1.0,67,0.00,,,0.00,Wunderground v.1.15,2013-06-24 14:55:00,
2013-06-24 11:00:00,87.2,75.3,29.76,East,88,0.0,1.0,68,0.00,,,0.00,Wunderground v.1.15,2013-06-24 15:00:00,
2013-06-24 11:05:00,87.5,74.7,29.76,East,87,0.0,1.0,66,0.00,,,0.00,Wunderground v.1.15,2013-06-24 15:05:00,
2013-06-24 11:10:00,87.7,74.9,29.76,ENE,73,0.0,1.0,66,0.00,,,0.00,Wunderground v.1.15,2013-06-24 15:10:00,
2013-06-24 11:15:00,88.0,75.2,29.76,West,264,0.0,1.0,66,0.00,,,0.00,Wunderground v.1.15,2013-06-24 15:15:00,
2013-06-24 11:25:00,88.3,75.0,29.75,NNE,23,0.0,1.0,65,0.00,,,0.00,Wunderground v.1.15,2013-06-24 15:25:00,
2013-06-24 11:35:00,88.1,75.8,29.75,NE,45,0.0,1.0,67,0.00,,,0.00,Wunderground v.1.15,2013-06-24 15:35:00,
2013-06-24 11:40:00,88.2,75.4,29.75,West,279,0.0,1.0,66,0.00,,,0.00,Wunderground v.1.15,2013-06-24 15:40:00,
2013-06-24 11:50:00,88.3,75.0,29.75,WNW,287,0.0,1.0,65,0.00,,,0.00,Wunderground v.1.15,2013-06-24 15:50:00,
2013-06-24 11:55:00,88.2,76.3,29.75,NNW,347,0.0,1.0,68,0.00,,,0.00,Wunderground v.1.15,2013-06-24 15:55:00,
2013-06-24 12:00:00,88.1,75.3,29.75,NNW,347,0.0,1.0,66,0.00,,,0.00,Wunderground v.1.15,2013-06-24 16:00:00,
2013-06-24 12:05:00,88.1,75.8,29.75,NNW,347,0.0,1.0,67,0.00,,,0.00,Wunderground v.1.15,2013-06-24 16:05:00,
2013-06-24 12:10:00,88.3,75.0,29.75,WSW,255,0.0,1.0,65,0.00,,,0.00,Wunderground v.1.15,2013-06-24 16:10:00,
2013-06-24 12:20:00,88.1,74.8,29.75,NNW,338,0.0,1.0,65,0.00,,,0.00,Wunderground v.1.15,2013-06-24 16:20:00,
2013-06-24 12:25:00,88.0,75.7,29.75,North,350,0.0,1.0,67,0.00,,,0.00,Wunderground v.1.15,2013-06-24 16:25:00,
2013-06-24 12:30:00,88.1,76.2,29.75,North,350,0.0,1.0,68,0.00,,,0.00,Wunderground v.1.15,2013-06-24 16:30:00,
2013-06-24 12:40:00,88.6,75.3,29.75,North,349,0.0,1.0,65,0.00,,,0.00,Wunderground v.1.15,2013-06-24 16:40:00,
2013-06-24 12:50:00,89.0,76.2,29.75,WNW,284,0.0,1.0,66,0.00,,,0.00,Wunderground v.1.15,2013-06-24 16:50:00,
2013-06-24 13:00:00,89.2,72.5,29.74,WNW,296,0.0,1.0,58,0.00,,,0.00,Wunderground v.1.15,2013-06-24 17:00:00,
2013-06-24 13:05:00,89.3,73.1,29.74,WNW,293,0.0,1.0,59,0.00,,,0.00,Wunderground v.1.15,2013-06-24 17:05:00,
2013-06-24 13:10:00,89.5,74.8,29.74,WSW,245,0.0,1.0,62,0.00,,,0.00,Wunderground v.1.15,2013-06-24 17:10:00,
2013-06-24 13:15:00,89.7,74.5,29.74,ESE,114,0.0,1.0,61,0.00,,,0.00,Wunderground v.1.15,2013-06-24 17:15:00,
2013-06-24 13:20:00,89.8,74.1,29.73,West,271,0.0,1.0,60,0.00,,,0.00,Wunderground v.1.15,2013-06-24 17:20:00,
2013-06-24 13:30:00,89.9,75.6,29.73,West,274,0.0,1.0,63,0.00,,,0.00,Wunderground v.1.15,2013-06-24 17:30:00,
2013-06-24 13:35:00,90.0,73.7,29.73,WNW,282,0.0,1.0,59,0.00,,,0.00,Wunderground v.1.15,2013-06-24 17:35:00,
2013-06-24 13:40:00,90.2,74.9,29.73,ENE,60,0.0,1.0,61,0.00,,,0.00,Wunderground v.1.15,2013-06-24 17:40:00,
2013-06-24 13:45:00,90.2,74.4,29.72,ENE,78,0.0,1.0,60,0.00,,,0.00,Wunderground v.1.15,2013-06-24 17:45:00,
2013-06-24 13:50:00,90.6,74.3,29.72,SW,232,0.0,1.0,59,0.00,,,0.00,Wunderground v.1.15,2013-06-24 17:50:00,
2013-06-24 14:00:00,91.1,76.3,29.71,East,92,0.0,1.0,62,0.00,,,0.00,Wunderground v.1.15,2013-06-24 18:00:00,
2013-06-24 14:05:00,91.1,73.2,29.71,East,92,0.0,1.0,56,0.00,,,0.00,Wunderground v.1.15,2013-06-24 18:05:00,
2013-06-24 14:10:00,91.2,74.4,29.70,East,92,0.0,1.0,58,0.00,,,0.00,Wunderground v.1.15,2013-06-24 18:10:00,
2013-06-24 14:15:00,91.3,74.4,29.70,ESE,113,0.0,1.0,58,0.00,,,0.00,Wunderground v.1.15,2013-06-24 18:15:00,
2013-06-24 14:20:00,91.4,74.0,29.70,SSW,206,0.0,1.0,57,0.00,,,0.00,Wunderground v.1.15,2013-06-24 18:20:00,
2013-06-24 14:30:00,90.9,73.0,29.69,NE,40,0.0,1.0,56,0.00,,,0.00,Wunderground v.1.15,2013-06-24 18:30:00,
2013-06-24 14:35:00,90.1,73.8,29.69,NE,40,0.0,1.0,59,0.00,,,0.00,Wunderground v.1.15,2013-06-24 18:35:00,
2013-06-24 14:40:00,89.3,73.1,29.68,West,261,0.0,1.0,59,0.00,,,0.00,Wunderground v.1.15,2013-06-24 18:40:00,
2013-06-24 14:50:00,87.9,72.3,29.68,NNE,19,0.0,1.0,60,0.00,,,0.00,Wunderground v.1.15,2013-06-24 18:50:00,
2013-06-24 14:55:00,87.4,71.8,29.69,NNE,19,0.0,1.0,60,0.00,,,0.00,Wunderground v.1.15,2013-06-24 18:55:00,
2013-06-24 15:00:00,87.0,72.9,29.69,NNE,19,0.0,1.0,63,0.00,,,0.00,Wunderground v.1.15,2013-06-24 19:00:00,
2013-06-24 15:10:00,86.2,72.6,29.69,NNE,19,0.0,1.0,64,0.00,,,0.00,Wunderground v.1.15,2013-06-24 19:10:00,
2013-06-24 15:15:00,85.7,72.1,29.68,NNE,19,0.0,1.0,64,0.00,,,0.00,Wunderground v.1.15,2013-06-24 19:15:00,
2013-06-24 15:25:00,85.1,72.5,29.69,NNE,19,0.0,1.0,66,0.00,,,0.00,Wunderground v.1.15,2013-06-24 19:25:00,
2013-06-24 15:30:00,84.8,73.5,29.69,NNE,19,0.0,1.0,69,0.00,,,0.00,Wunderground v.1.15,2013-06-24 19:30:00,
2013-06-24 15:35:00,84.3,73.0,29.68,NNE,19,0.0,1.0,69,0.00,,,0.00,Wunderground v.1.15,2013-06-24 19:35:00,
2013-06-24 15:40:00,84.0,73.2,29.68,NNE,19,0.0,1.0,70,0.00,,,0.00,Wunderground v.1.15,2013-06-24 19:40:00,
2013-06-24 15:50:00,83.4,73.4,29.69,NNE,19,0.0,1.0,72,0.00,,,0.00,Wunderground v.1.15,2013-06-24 19:50:00,
2013-06-24 15:55:00,83.1,73.5,29.68,NNE,19,0.0,1.0,73,0.00,,,0.00,Wunderground v.1.15,2013-06-24 19:55:00,
2013-06-24 16:00:00,82.9,73.8,29.68,NNE,19,0.0,1.0,74,0.00,,,0.00,Wunderground v.1.15,2013-06-24 20:00:00,
2013-06-24 16:05:00,82.7,74.4,29.68,NNE,19,0.0,1.0,76,0.00,,,0.00,Wunderground v.1.15,2013-06-24 20:05:00,
2013-06-24 16:10:00,82.4,73.7,29.69,NNE,19,0.0,1.0,75,0.00,,,0.00,Wunderground v.1.15,2013-06-24 20:10:00,
2013-06-24 16:15:00,82.1,73.8,29.69,NNE,19,0.0,1.0,76,0.00,,,0.00,Wunderground v.1.15,2013-06-24 20:15:00,
2013-06-24 16:20:00,81.9,74.0,29.69,NNE,19,0.0,1.0,77,0.00,,,0.00,Wunderground v.1.15,2013-06-24 20:20:00,
2013-06-24 16:30:00,82.0,74.1,29.68,NNE,19,0.0,1.0,77,0.00,,,0.00,Wunderground v.1.15,2013-06-24 20:30:00,
2013-06-24 16:35:00,82.0,74.1,29.68,NNE,19,0.0,1.0,77,0.00,,,0.00,Wunderground v.1.15,2013-06-24 20:35:00,
2013-06-24 16:40:00,81.7,73.8,29.68,NNE,19,0.0,1.0,77,0.00,,,0.00,Wunderground v.1.15,2013-06-24 20:40:00,
2013-06-24 16:45:00,81.3,73.4,29.67,North,10,0.0,1.0,77,0.00,,,0.00,Wunderground v.1.15,2013-06-24 20:45:00,
2013-06-24 16:50:00,80.4,70.9,29.67,North,10,0.0,1.0,73,0.00,,,0.00,Wunderground v.1.15,2013-06-24 20:50:00,
2013-06-24 16:55:00,79.3,70.7,29.67,ENE,65,1.0,1.0,75,0.00,,,0.00,Wunderground v.1.15,2013-06-24 20:55:00,
2013-06-24 17:00:00,78.4,68.6,29.67,ENE,65,1.0,1.0,72,0.00,,,0.00,Wunderground v.1.15,2013-06-24 21:00:00,
2013-06-24 17:10:00,77.6,69.0,29.67,ENE,65,0.0,1.0,75,0.00,,,0.00,Wunderground v.1.15,2013-06-24 21:10:00,
2013-06-24 17:20:00,77.7,68.4,29.65,ENE,65,0.0,1.0,73,0.00,,,0.00,Wunderground v.1.15,2013-06-24 21:20:00,
2013-06-24 17:25:00,78.1,69.5,29.66,ENE,65,0.0,1.0,75,0.00,,,0.00,Wunderground v.1.15,2013-06-24 21:25:00,
2013-06-24 17:30:00,78.4,69.4,29.66,ENE,65,0.0,1.0,74,0.00,,,0.00,Wunderground v.1.15,2013-06-24 21:30:00,
2013-06-24 17:35:00,78.4,68.6,29.66,ENE,65,0.0,1.0,72,0.00,,,0.00,Wunderground v.1.15,2013-06-24 21:35:00,
2013-06-24 17:45:00,77.9,68.5,29.67,ENE,65,0.0,1.0,73,0.00,,,0.00,Wunderground v.1.15,2013-06-24 21:45:00,
2013-06-24 17:50:00,77.5,69.3,29.68,ENE,65,0.0,2.0,76,0.00,,,0.00,Wunderground v.1.15,2013-06-24 21:50:00,
2013-06-24 17:55:00,76.9,68.4,29.70,ENE,68,1.0,2.0,75,0.00,,,0.00,Wunderground v.1.15,2013-06-24 21:55:00,
2013-06-24 18:00:00,76.6,67.7,29.71,East,80,1.0,2.0,74,0.00,,,0.00,Wunderground v.1.15,2013-06-24 22:00:00,
2013-06-24 18:05:00,76.6,67.3,29.71,ENE,71,2.0,2.0,73,0.00,,,0.00,Wunderground v.1.15,2013-06-24 22:05:00,
2013-06-24 18:10:00,76.3,65.8,29.72,ENE,74,2.0,2.0,70,0.00,,,0.00,Wunderground v.1.15,2013-06-24 22:10:00,
2013-06-24 18:20:00,71.9,65.8,29.75,ENE,64,2.0,3.0,81,0.69,,,0.06,Wunderground v.1.15,2013-06-24 22:20:00,
2013-06-24 18:25:00,69.9,65.2,29.73,WNW,298,1.0,3.0,85,0.33,,,0.10,Wunderground v.1.15,2013-06-24 22:25:00,
2013-06-24 18:35:00,68.2,65.2,29.72,WNW,302,0.0,1.0,90,0.15,,,0.13,Wunderground v.1.15,2013-06-24 22:35:00,
2013-06-24 18:40:00,67.9,65.5,29.72,WNW,302,0.0,1.0,92,0.08,,,0.13,Wunderground v.1.15,2013-06-24 22:40:00,
2013-06-24 18:45:00,67.8,65.7,29.71,WNW,302,0.0,1.0,93,0.05,,,0.13,Wunderground v.1.15,2013-06-24 22:45:00,
2013-06-24 18:50:00,67.8,66.0,29.71,WNW,302,0.0,1.0,94,0.00,,,0.13,Wunderground v.1.15,2013-06-24 22:50:00,
2013-06-24 18:55:00,67.8,66.0,29.70,WNW,302,0.0,1.0,94,0.00,,,0.14,Wunderground v.1.15,2013-06-24 22:55:00,
2013-06-24 19:05:00,68.5,67.3,29.69,WNW,285,0.0,1.0,96,0.00,,,0.14,Wunderground v.1.15,2013-06-24 23:05:00,
2013-06-24 19:10:00,68.8,67.6,29.69,WNW,285,1.0,1.0,96,0.00,,,0.14,Wunderground v.1.15,2013-06-24 23:10:00,
2013-06-24 19:15:00,68.8,67.3,29.69,WNW,286,0.0,1.0,95,0.00,,,0.14,Wunderground v.1.15,2013-06-24 23:15:00,
2013-06-24 19:20:00,68.8,67.3,29.70,WNW,286,0.0,1.0,95,0.00,,,0.14,Wunderground v.1.15,2013-06-24 23:20:00,
2013-06-24 19:25:00,68.9,67.7,29.70,WNW,286,0.0,1.0,96,0.00,,,0.14,Wunderground v.1.15,2013-06-24 23:25:00,
2013-06-24 19:35:00,69.2,68.0,29.69,NNE,20,0.0,1.0,96,0.00,,,0.14,Wunderground v.1.15,2013-06-24 23:35:00,
2013-06-24 19:40:00,69.4,68.2,29.68,NNE,20,0.0,1.0,96,0.00,,,0.15,Wunderground v.1.15,2013-06-24 23:40:00,
2013-06-24 19:45:00,69.6,68.7,29.68,NNE,20,0.0,1.0,97,0.00,,,0.15,Wunderground v.1.15,2013-06-24 23:45:00,
2013-06-24 19:50:00,69.6,68.7,29.68,NNE,20,0.0,1.0,97,0.00,,,0.15,Wunderground v.1.15,2013-06-24 23:50:00,
2013-06-24 19:55:00,69.5,68.3,29.69,NNE,20,0.0,1.0,96,0.00,,,0.15,Wunderground v.1.15,2013-06-24 23:55:00,
2013-06-24 20:00:00,69.5,68.3,29.69,NNE,20,0.0,1.0,96,0.00,,,0.15,Wunderground v.1.15,2013-06-25 00:00:00,
2013-06-24 20:10:00,69.5,68.3,29.69,NNE,20,0.0,1.0,96,0.00,,,0.15,Wunderground v.1.15,2013-06-25 00:10:00,
2013-06-24 20:15:00,69.5,68.3,29.69,NNE,20,0.0,1.0,96,0.00,,,0.15,Wunderground v.1.15,2013-06-25 00:15:00,
2013-06-24 20:20:00,69.5,68.3,29.69,NNE,20,0.0,1.0,96,0.00,,,0.15,Wunderground v.1.15,2013-06-25 00:20:00,
2013-06-24 20:25:00,69.4,68.2,29.69,NNE,20,0.0,1.0,96,0.00,,,0.15,Wunderground v.1.15,2013-06-25 00:25:00,
2013-06-24 20:30:00,69.4,68.2,29.69,NNE,20,0.0,1.0,96,0.00,,,0.00,Wunderground v.1.15,2013-06-25 00:30:00,
2013-06-24 20:35:00,69.3,68.1,29.69,NNE,20,0.0,1.0,96,0.00,,,0.00,Wunderground v.1.15,2013-06-25 00:35:00,
2013-06-24 20:40:00,69.4,68.5,29.69,NNE,20,0.0,1.0,97,0.00,,,0.00,Wunderground v.1.15,2013-06-25 00:40:00,
2013-06-24 20:45:00,69.3,68.4,29.69,NNE,20,0.0,1.0,97,0.00,,,0.00,Wunderground v.1.15,2013-06-25 00:45:00,
2013-06-24 20:50:00,69.2,68.3,29.69,NNE,20,0.0,1.0,97,0.00,,,0.00,Wunderground v.1.15,2013-06-25 00:50:00,
2013-06-24 21:00:00,69.2,68.3,29.69,NNE,20,0.0,1.0,97,0.00,,,0.00,Wunderground v.1.15,2013-06-25 01:00:00,
2013-06-24 21:05:00,69.1,68.2,29.70,NNE,20,0.0,1.0,97,0.00,,,0.00,Wunderground v.1.15,2013-06-25 01:05:00,
2013-06-24 21:10:00,69.0,68.1,29.69,NNE,20,0.0,1.0,97,0.00,,,0.00,Wunderground v.1.15,2013-06-25 01:10:00,
2013-06-24 21:15:00,68.9,68.0,29.70,NNE,20,0.0,1.0,97,0.00,,,0.00,Wunderground v.1.15,2013-06-25 01:15:00,
2013-06-24 21:20:00,68.8,67.9,29.70,NNE,20,0.0,1.0,97,0.00,,,0.00,Wunderground v.1.15,2013-06-25 01:20:00,
2013-06-24 21:25:00,68.8,67.9,29.70,NNE,20,0.0,1.0,97,0.00,,,0.00,Wunderground v.1.15,2013-06-25 01:25:00,
2013-06-24 21:30:00,68.8,67.9,29.70,NNE,20,0.0,1.0,97,0.00,,,0.00,Wunderground v.1.15,2013-06-25 01:30:00,
2013-06-24 21:40:00,68.6,67.7,29.71,NNE,20,0.0,1.0,97,0.00,,,0.00,Wunderground v.1.15,2013-06-25 01:40:00,
2013-06-24 21:45:00,68.6,67.7,29.71,NNE,20,0.0,1.0,97,0.00,,,0.00,Wunderground v.1.15,2013-06-25 01:45:00,
2013-06-24 21:55:00,68.6,67.7,29.70,NNE,20,0.0,1.0,97,0.00,,,0.00,Wunderground v.1.15,2013-06-25 01:55:00,
2013-06-24 22:05:00,68.4,67.5,29.71,NNE,20,0.0,1.0,97,0.00,,,0.00,Wunderground v.1.15,2013-06-25 02:05:00,
2013-06-24 22:10:00,68.4,67.5,29.71,NNE,20,0.0,1.0,97,0.00,,,0.00,Wunderground v.1.15,2013-06-25 02:10:00,
2013-06-24 22:25:00,68.2,67.3,29.71,NNE,20,0.0,1.0,97,0.00,,,0.00,Wunderground v.1.15,2013-06-25 02:25:00,
2013-06-24 22:30:00,68.1,67.2,29.71,NNE,20,0.0,1.0,97,0.00,,,0.00,Wunderground v.1.15,2013-06-25 02:30:00,
2013-06-24 22:35:00,68.0,67.1,29.71,NNE,20,0.0,1.0,97,0.00,,,0.00,Wunderground v.1.15,2013-06-25 02:35:00,
2013-06-24 22:45:00,67.7,66.8,29.71,NNE,20,0.0,1.0,97,0.00,,,0.00,Wunderground v.1.15,2013-06-25 02:45:00,
2013-06-24 22:50:00,67.7,66.8,29.71,NNE,20,0.0,1.0,97,0.00,,,0.00,Wunderground v.1.15,2013-06-25 02:50:00,
2013-06-24 22:55:00,67.6,66.7,29.71,NNE,20,0.0,1.0,97,0.00,,,0.00,Wunderground v.1.15,2013-06-25 02:55:00,
2013-06-24 23:00:00,67.7,66.8,29.70,NNE,20,0.0,1.0,97,0.00,,,0.00,Wunderground v.1.15,2013-06-25 03:00:00,
2013-06-24 23:05:00,67.7,66.8,29.70,NNE,20,0.0,1.0,97,0.00,,,0.00,Wunderground v.1.15,2013-06-25 03:05:00,
2013-06-24 23:10:00,67.7,66.8,29.70,NNE,20,0.0,1.0,97,0.00,,,0.00,Wunderground v.1.15,2013-06-25 03:10:00,
2013-06-24 23:15:00,67.7,66.8,29.70,NNE,20,0.0,1.0,97,0.00,,,0.00,Wunderground v.1.15,2013-06-25 03:15:00,
2013-06-24 23:20:00,67.7,66.8,29.70,NNE,20,0.0,1.0,97,0.00,,,0.00,Wunderground v.1.15,2013-06-25 03:20:00,
2013-06-24 23:25:00,67.7,66.8,29.70,NNE,20,0.0,1.0,97,0.00,,,0.00,Wunderground v.1.15,2013-06-25 03:25:00,
2013-06-24 23:30:00,67.6,66.7,29.70,NNE,20,0.0,1.0,97,0.00,,,0.00,Wunderground v.1.15,2013-06-25 03:30:00,
2013-06-24 23:35:00,67.6,66.7,29.70,NNE,20,0.0,1.0,97,0.00,,,0.00,Wunderground v.1.15,2013-06-25 03:35:00,
2013-06-24 23:45:00,67.6,66.7,29.70,NNE,20,0.0,1.0,97,0.00,,,0.00,Wunderground v.1.15,2013-06-25 03:45:00,
2013-06-24 23:50:00,67.5,66.6,29.70,NNE,20,0.0,1.0,97,0.00,,,0.00,Wunderground v.1.15,2013-06-25 03:50:00,
2013-06-24 23:55:00,67.5,66.6,29.70,NNE,20,0.0,1.0,97,0.00,,,0.00,Wunderground v.1.15,2013-06-25 03:55:00,